FW5346 Weather Reports


time (UTC)temp
C
wind
direction
speed
KPH
gust
KPH
rain 1hr
cm
rain 24hr
cm
rain mn
cm
humidity
%
barometer
mb
20260508001547 8 199 4.8 8.0 0.28 1.96 1.96 91 1003.4
20260508000046 8 207 4.8 11.3 0.20 1.88 1.88 91 1003.5
20260507234556 7 208 11.3 19.3 0.13 1.80 1.80 91 1003.2
20260507233044 8 257 9.7 19.3 0.05 1.73 1.73 88 1002.8
20260507231548 8 229 12.9 20.9 0.00 1.68 1.68 87 1002.6
20260507230036 12 230 20.9 29.0 0.00 1.68 1.68 80 1002.1
20260507224537 13 169 6.4 19.3 0.00 1.68 1.68 84 1001.5
20260507223035 13 141 12.9 25.7 0.00 1.68 1.68 84 1001.4
20260507221535 13 138 12.9 24.1 0.00 1.68 1.68 84 1001.5
20260507220033 13 150 24.1 37.0 0.00 1.68 1.68 84 1001.4
20260507214533 13 147 19.3 33.8 0.00 1.68 1.68 84 1001.4
20260507213032 13 148 19.3 30.6 0.00 1.68 1.68 84 1001.0
20260507211533 13 152 20.9 35.4 0.00 1.68 1.68 85 1001.0
20260507210033 13 161 24.1 38.6 0.00 1.68 1.68 85 1001.3
20260507204531 13 129 29.0 37.0 0.05 1.68 1.68 83 1001.3
20260507203031 14 158 25.7 33.8 0.23 1.68 1.68 83 1001.1
20260507201537 13 106 19.3 29.0 0.41 1.68 1.68 85 1000.6
20260507200043 13 131 19.3 38.6 0.48 1.68 1.68 85 1000.2
20260507194527 12 118 29.0 41.8 0.51 1.65 1.65 88 1001.2
20260507193023 12 134 30.6 40.2 0.43 1.42 1.42 89 1002.1
20260507191520 12 176 14.5 25.7 0.41 1.27 1.27 88 1003.5
20260507190018 12 156 16.1 30.6 0.51 1.19 1.19 88 1003.2
20260507184517 12 125 19.3 35.4 0.76 1.12 1.12 88 1003.6
20260507183030 12 154 24.1 41.8 0.97 0.99 0.99 88 1003.9
20260507181514 12 171 19.3 27.4 0.86 0.86 0.86 89 1004.3
20260507180012 12 185 12.9 29.0 0.69 0.69 0.69 89 1004.4
20260507174512 12 168 19.3 33.8 0.33 0.33 0.33 88 1004.8
20260507173007 13 201 19.3 41.8 0.03 0.03 0.03 85 1004.3
20260507171505 13 189 29.0 51.5 0.00 0.00 0.00 84 1003.3
20260507170003 14 188 19.3 46.7 0.00 0.00 0.00 82 1003.4
20260507164502 14 171 27.4 51.5 0.00 0.00 0.00 80 1003.6
20260507163001 15 203 35.4 64.4 0.00 0.00 0.00 78 1003.8
20260507161613 15 343 37.0 48.3 0.00 0.00 0.00 77 1004.0
20260507160100 15 140 25.7 51.5 0.00 0.00 0.00 77 1004.5
20260507154557 16 159 24.1 51.5 0.00 0.00 0.00 75 1004.8
20260507153055 16 144 32.2 56.3 0.00 0.00 0.00 74 1005.0
20260507151554 16 159 32.2 59.5 0.00 0.00 0.00 74 1005.7
20260507150054 16 178 27.4 48.3 0.00 0.00 0.00 75 1005.7
20260507144551 16 171 29.0 56.3 0.00 0.00 0.00 74 1005.8
20260507143052 16 191 37.0 54.7 0.00 0.00 0.00 75 1005.7
20260507141552 16 171 32.2 49.9 0.00 0.00 0.00 77 1006.5
20260507140045 15 190 27.4 49.9 0.00 0.00 0.00 79 1006.6
20260507134553 15 183 38.6 57.9 0.00 0.00 0.00 78 1006.7
20260507133044 15 175 38.6 75.6 0.00 0.00 0.00 79 1006.5
20260507131542 15 173 32.2 59.5 0.00 0.00 0.00 80 1006.8
20260507130043 15 165 38.6 67.6 0.00 0.00 0.00 82 1007.1
20260507124540 15 152 32.2 59.5 0.00 0.00 0.00 80 1007.2
20260507123039 15 189 33.8 69.2 0.00 0.00 0.00 81 1007.3
20260507121537 14 154 41.8 61.2 0.00 0.00 0.00 82 1007.0
20260507120036 14 146 41.8 57.9 0.00 0.00 0.00 82 1007.2
20260507114536 14 131 35.4 57.9 0.00 0.00 0.00 83 1007.7
20260507113033 14 189 38.6 59.5 0.00 0.00 0.00 83 1008.0
20260507111532 15 161 35.4 67.6 0.00 0.00 0.00 81 1008.8
20260507110045 14 140 35.4 64.4 0.00 0.00 0.00 82 1008.7
20260507104530 14 173 33.8 49.9 0.00 0.00 0.00 82 1008.4
20260507103030 14 185 29.0 64.4 0.00 0.00 0.00 82 1008.8
20260507101533 14 172 33.8 54.7 0.00 0.00 0.00 82 1008.7
20260507100033 14 148 43.5 61.2 0.00 0.00 0.00 81 1009.2
20260507094525 14 156 32.2 48.3 0.00 0.00 0.00 82 1008.3
20260507093023 14 165 30.6 49.9 0.00 0.00 0.00 82 1009.7
20260507091521 13 148 32.2 46.7 0.00 0.00 0.00 83 1009.7
20260507090030 13 181 25.7 48.3 0.00 0.00 0.00 83 1010.2
20260507084530 14 183 30.6 56.3 0.00 0.00 0.00 83 1010.1
20260507083015 14 160 20.9 41.8 0.00 0.00 0.00 81 1010.7
20260507081515 14 150 24.1 45.1 0.00 0.00 0.00 82 1010.2
20260507080008 14 163 22.5 40.2 0.00 0.00 0.00 81 1010.4
20260507074522 15 175 17.7 29.0 0.00 0.00 0.00 80 1010.8
20260507073004 15 160 25.7 37.0 0.00 0.00 0.00 80 1011.0
20260507071501 15 144 22.5 41.8 0.00 0.00 0.00 79 1011.7
20260507070108 15 173 22.5 38.6 0.00 0.00 0.00 78 1011.9
20260507064600 15 158 20.9 40.2 0.00 0.00 0.00 77 1011.8
20260507063058 15 170 22.5 38.6 0.00 0.00 0.00 77 1011.8
20260507061557 15 133 22.5 40.2 0.00 0.00 0.00 75 1011.9
20260507060106 15 167 19.3 35.4 0.00 0.00 0.00 74 1012.4
20260507054554 15 138 24.1 40.2 0.00 0.00 0.00 72 1012.2
20260507053052 15 156 24.1 38.6 0.00 0.00 0.00 65 1012.8
20260507051544 15 144 29.0 48.3 0.00 0.00 0.00 62 1013.2
20260507050043 15 145 29.0 46.7 0.00 0.00 0.00 65 1013.3
20260507044537 15 343 24.1 33.8 0.00 0.00 0.00 67 1014.0
20260507043034 15 191 12.9 29.0 0.00 0.00 0.00 68 1014.4
20260507041532 15 343 20.9 37.0 0.00 0.00 0.00 69 1014.7
20260507040027 15 140 17.7 37.0 0.00 0.00 0.00 69 1015.1
20260507034544 15 142 19.3 38.6 0.00 0.00 0.00 70 1015.2
20260507033022 15 184 24.1 35.4 0.00 0.00 0.00 70 1015.6
20260507031519 15 160 17.7 46.7 0.00 0.00 0.00 70 1015.8
20260507030018 15 155 25.7 41.8 0.00 0.00 0.00 69 1016.0
20260507024528 15 157 19.3 46.7 0.00 0.00 0.00 68 1016.3
20260507023013 15 194 20.9 45.1 0.00 0.00 0.00 69 1016.6
20260507021513 15 163 22.5 41.8 0.00 0.00 0.00 68 1016.5
20260507020013 16 153 33.8 51.5 0.00 0.00 0.00 68 1016.6
20260507014522 16 165 30.6 57.9 0.00 0.00 0.00 69 1016.7
20260507013011 16 138 25.7 45.1 0.00 0.00 0.00 69 1016.6
20260507011525 16 188 24.1 43.5 0.00 0.00 0.00 69 1016.8
20260507010017 16 165 27.4 45.1 0.00 0.00 0.00 69 1017.1
20260507004509 16 175 33.8 49.9 0.00 0.00 0.00 68 1017.1
20260507003015 16 194 27.4 41.8 0.00 0.00 0.00 68 1016.9